233  
ASUS42 KMHX 270625  
RWRMHX  
WEATHER ROUNDUP FOR EASTERN NORTH CAROLINA  
NATIONAL WEATHER SERVICE NEWPORT/MOREHEAD CITY NC  
200 AM EDT TUE SEP 27 2016  
 
NOTE: "FAIR" INDICATES FEW OR NO CLOUDS BELOW 12,000 FEET  
WITH NO SIGNIFICANT WEATHER AND/OR S TO VISIBILITY
 
 
NCZ015>017-031-032-045>047-102-103-270700-  
NORTH COAST  
 
CITY SKY/WX TMP DP RH WIND PRES REMARKS
 
EDENTON MOCLDY 74 68 80 S7 30.02S  
ELIZABETH CITY CLOUDY 72 66 81 CALM 30.01F  
KITTY HAWK PTCLDY 74 70 86 S5 30.01S  
MANTEO PTCLDY 76 68 77 S13 30.02F  
 

 
 
NCZ045>047-081-094-103-104-270700-  
CENTRAL COAST  
 
CITY SKY/WX TMP DP RH WIND PRES REMARKS
 
FRISCO CLEAR 77 65 66 S12 30.03S  
 

 
 
NCZ095-097-098-100-101-270700-  
SOUTHERN COAST  
 
CITY SKY/WX TMP DP RH WIND PRES REMARKS
 
BEAUFORT MOCLDY 75 66 73 S5 30.02S  
CEDAR ISLAND NOT AVBL  
JACKSONVILLE CLOUDY 70 68 93 CALM 30.01S  
PINEY ISLAND PTCLDY N/A N/A N/A CALM 30.02  
WILMINGTON MOCLDY 71 69 93 CALM 30.01S  
 

 
 
NCZ011>013-027>030-043-044-078>080-089-090>093-098-270700-  
COASTAL PLAIN  
 
CITY SKY/WX TMP DP RH WIND PRES REMARKS
 
AHOSKIE PTCLDY 69 67 93 CALM 30.01S  
CLINTON PTCLDY 71 68 92 CALM 30.02S  
ELIZABETHTOWN CLOUDY 71 69 95 CALM 30.01S  
GOLDSBORO MOCLDY 71 71 100 N1 30.00S  
GREENVILLE CLOUDY 70 68 94 CALM 30.04R  
HAVELOCK CLOUDY 70 66 87 SE3 30.03S  
KENANSVILLE CLOUDY 68 66 94 CALM 30.01F FOG  
KINSTON PTCLDY 69 67 94 CALM 30.02F  
NEW BERN CLOUDY 68 66 93 CALM 30.04S  
RICHLANDS CLOUDY 68 67 96 CALM 30.02F  
ROCKY MOUNT CLOUDY 69 68 96 S5 30.02S  
WASHINGTON PTCLDY 67 66 96 SE3 30.02F  
WHITEVILLE NOT AVBL  
 

 
 
AMZ130-135-150-152-154-156-158-170-250-252-270-ANZ085-086-088-633-658-670-270700-  
MARINE OBSERVATIONS  
 
STATION/POSITION TIME TEMP WIND PRES WAVE SWELL
 
AIR SEA DIR/SP/G HT/PER HT/PER  
(UTC) (F) (DEG/KT/KT) (MB) (FT/S) (FT/S)  
CHESAPEAKE LIGHT NOT AVBL  
64 E VA BEACH 0550 75 74 170/ 16/ 19 1015.7 3/ 5 2/ 8  
DUCK 0600 76 76 180/ 12/ 15 1015.7  
2 E DUCK 0541 76 N/A 3/ 9  
OREGON INLET 0600 76 76 160/ 8/ 12 1016.6  
13E OREGON INLT 0600 76 N/A 3/ 8 3/ 8  
HATTERAS CG 0600 78 78 150/ 11/ 14 1016.5  
DIAMOND BUOY 0550 79 85 160/ 16/ 19 1016.6 4/ 6 2/ 7  
CAPE LOOKOUT 0600 79 150/ 10/ 11 1016.3  
BEAUFORT LAB 0600 78 76 170/ 9/ 12 1015.9  
30 SE NEW RVR IN 0608 80 82 140/ 12/ 16 1016.3  
30 SE NEW RVR IN 0555 82 N/A 3/ 8  
27 SE WRIGHTSVLE 0608 80 81 130/ 12/ 16 1016.3  
5 SE WRIGHTSVLE 0508 80 81 150/ 10/ 14 1017.2  
225 S CAPE HAT 0550 81 83 120/ 19/ 23 1014.8 5/ 5 2/14  
41 SE CHARLESTON 0550 80 82 110/ 10/ 12 1014.0 3/ 5 3/ 5  
 

 
 
 
CLICK HERE TO GO TO PREVIOUS BULLETINS.

The Nexlab NC Page Main Text Page